NOAA 16 DEB, 41280

Orbit data source: Space-Track

NOAA 16 DEB, 41280 is space debris in SSO originally from a launch on Thu, 21 Sep 2000 UTC launched from the Air Force Western Test Range (AFWTR). Debris objects in space refer to the collection of defunct objects orbiting the Earth. Examples of debris include non-operational satellites, rocket bodies, and fragments generated from explosions, collisions, or faulty payload assembly.

Loading next visibility...
Identifier
41280, 2000-055GG
Orbit
SSO
Country
Flag of USUS
Related business
Manufacturer
Unknown
Mission
Spacecraft
Bus & Motor
Unknown
Mass
Unknown
Launch date (UTC)
2000-09-21 (26 years ago)
Launch vehicle
Unknown
Launch site
Air Force Western Test Range (AFWTR)
Object type
Payload
Rocket body
Debris
Shape & HBR
Unknown shape, 0.1 m
Radar Cross Section
Medium (>0.1 m² and <1 m²)

Expand to show TLE details & history
Last TLE update: 2 days ago

TLE from 2 days ago
0 NOAA 16 DEB
1 41280U 00055GG  26176.22621764  .00003300  00000-0  15128-2 0  9992
2 41280  98.6636 179.0882 0028344 164.9028 195.3002 14.21779923540409
Epoch: 2026-06-25T05:25Z
TLE epoch observation values (Epoch: 2026-06-25T05:25:45.204Z)
Latitude
0.00001°
Longitude
-175.72227°
Altitude
841.943 km
Speed
7.422 km/s
True Right ascension
11h 56m 21s
True Declination
0° 00' 00"
Sunlit
Object was in daylight at epoch
Visualization orbit readout
Latitude
Unknown
Longitude
Unknown
Altitude
Unknown
Speed
Unknown
Apparent Right ascension
Unknown
Apparent Declination
Unknown
Sunlit
N/A
Visualization observer readout
Local Sidereal Time
03:09:07
Azimuth
Unknown
Elevation
Unknown
Doppler factor
Unknown
Orbital elements
Apogee altitude
836.886 km
Perigee altitude
796.101 km
Semi-major axis
7,194.63 km
Eccentricity
0.00283
Inclination
98.6636°
RAAN
179.0882°
Arg. of periapsis
164.9028°
True anomaly
195.21479°
Mean anomaly
195.3002°
Eccentric anomaly
195.25746°
Mean motion
3.55656 °/min
Orbital period
101.22 mins
BSTAR
0.0015128
Loading maneuver chart data...
Computing Atmospheric mass density...
Loading historical data...
Loading historical data...
Loading historical data...
Loading historical data...
Loading historical data...
Loading historical data...
Loading historical data...

Documentation

Showing up to 5 results
|